This is the latest recevied weather packets stored in our database for station/object KC3ULW-13. If no packets are shown the sender has not sent any weather packets the latest 10 day(s).
| Time | Temp. | Humidity | Pressure | Rain* | Wind** | Luminosity | Snow |
|---|---|---|---|---|---|---|---|
| 1777982641 | 18.89° C | 61% | 1011.5 hPa | 0 mm | - | 67 W/m² | - |
| 1777982340 | 18.89° C | 60% | 1011.3 hPa | 0 mm | - | 52 W/m² | - |
| 1777982037 | 18.89° C | 60% | 1011.4 hPa | 0 mm | - | 64 W/m² | - |
| 1777981735 | 18.89° C | 60% | 1011.3 hPa | 0 mm | - | 86 W/m² | - |
| 1777981431 | 18.89° C | 61% | 1011.2 hPa | 0 mm | - | 104 W/m² | - |
| 1777981128 | 18.89° C | 61% | 1011.2 hPa | 0 mm | - | 95 W/m² | - |
| 1777980824 | 18.33° C | 62% | 1011.3 hPa | 0 mm | - | 98 W/m² | - |
| 1777980520 | 18.33° C | 62% | 1011.2 hPa | 0 mm | - | 81 W/m² | - |
| 1777980218 | 17.78° C | 63% | 1011.3 hPa | 0 mm | - | 59 W/m² | - |
| 1777979913 | 17.78° C | 63% | 1011.1 hPa | 0 mm | - | 42 W/m² | - |
| 1777979609 | 17.78° C | 64% | 1011.1 hPa | 0 mm | - | 38 W/m² | - |
| 1777979305 | 17.78° C | 64% | 1010.9 hPa | 0 mm | - | 35 W/m² | - |
| 1777979003 | 17.78° C | 64% | 1010.9 hPa | 0 mm | - | 27 W/m² | - |
| 1777978699 | 17.22° C | 65% | 1011.1 hPa | 0 mm | - | 22 W/m² | - |
| 1777978395 | 17.22° C | 65% | 1010.9 hPa | 0 mm | - | 20 W/m² | - |
| 1777978091 | 17.22° C | 65% | 1010.8 hPa | 0 mm | - | 18 W/m² | - |
| 1777977789 | 17.22° C | 66% | 1010.9 hPa | 0 mm | - | 16 W/m² | - |
| 1777977485 | 17.22° C | 66% | 1010.5 hPa | 0 mm | - | 9 W/m² | - |
| 1777977183 | 17.22° C | 65% | 1010.8 hPa | 0 mm | - | 9 W/m² | - |
| 1777976880 | 17.22° C | 66% | 1010.7 hPa | 0 mm | - | 5 W/m² | - |
| 1777976578 | 17.22° C | 66% | 1010.7 hPa | 0 mm | - | 2 W/m² | - |
| 1777976277 | 17.22° C | 66% | 1010.3 hPa | 0 mm | - | 0 W/m² | - |
| 1777975972 | 17.22° C | 67% | 1010.3 hPa | 0 mm | - | 0 W/m² | - |
| 1777975669 | 17.22° C | 67% | 1010.5 hPa | 0 mm | - | 0 W/m² | - |
| 1777975366 | 16.67° C | 67% | 1010.1 hPa | 0 mm | - | 0 W/m² | - |
* Rain latest hour (hover to see other rain measurements)
** Current wind speed in m/s (hover to see current wind gust speed)